Tracking 30166 objects as of 22-Jan-2025
HD Live streaming from Space Station
objects crossing your sky now

STARLINK-2187

Track STARLINK-2187 now!
10-day predictions
STARLINK-2187 is classified as:


NORAD ID: 48562
Int'l Code: 2021-041K
Perigee: 553.5 km
Apogee: 555.2 km
Inclination: 53.1 °
Period: 95.6 minutes
Semi major axis: 6925 km
RCS: Unknown
Launch date: May 15, 2021
Source: United States (US)
Launch site: AIR FORCE EASTERN TEST RANGE (AFETR)
Your satellite tracking list
Your tracking list is empty




NASA's NSSDC Master Catalog

Two Line Element Set (TLE):
1 48562U 21041K   25022.39788836  .00000114  00000-0  26548-4 0  9991
2 48562  53.0540 177.9780 0001261  92.3195 267.7939 15.06407132203212
Source of the keplerian elements: AFSPC